Wind_Speed
2 3 5 9 7 1 2 3 4 4 0 3 7 16 20 10 9 13 10 8 8 8 6 5 2 7 12 14 21 26 28 29 27 27 24 22 21 23 19 14 13 10 11 13
3 7 4 3 4 4 3 1 4 4 2 1 6 20 19 5 6 11 11 9 8 5 6 4 2 7 10 15 21 26 28 27 26 25 27 19 24 24 21 13 9 9 8 11
6 1 5 4 3 4 2 4 3 3 5 1 8 9 5 2 3 2 4 5 6 8 8 4 2 6 10 16 22 26 26 25 24 25 26 25 21 18 10 11 3 5 6 7
5 2 5 3 4 5 3 3 3 2 5 3 4 5 6 4 7 2 4 6 7 7 5 3 0 5 9 15 20 24 24 22 23 24 24 22 15 16 13 13 6 2 5 7
5 6 4 3 4 5 3 3 2 2 2 3 4 3 8 4 4 3 5 6 7 7 6 5 1 4 7 13 19 22 21 21 22 24 22 21 21 21 18 10 6 6 8 8
2 0 4 4 3 1 6 4 5 4 2 2 2 4 6 3 3 1 2 7 8 7 6 5 1 3 6 11 17 21 20 21 22 22 23 22 20 22 16 16 15 14 7 11
1 3 1 3 4 4 2 4 2 4 2 4 3 2 11 5 5 4 4 8 8 7 6 4 2 2 5 11 16 20 20 22 22 21 21 20 16 19 18 19 17 16 17 16
7 4 8 5 4 5 5 5 4 5 2 4 3 6 6 5 3 6 2 5 7 7 5 5 4 1 3 7 13 17 19 21 21 19 18 18 17 20 19 18 21 21 22 17
5 2 2 2 2 3 4 4 1 6 2 3 3 7 8 4 2 1 4 6 8 8 7 6 5 2 1 4 10 13 17 19 18 17 17 18 17 20 20 18 20 23 23 23
5 4 1 2 3 3 3 4 3 2 2 4 5 5 6 3 7 6 6 9 8 7 8 6 6 5 3 1 7 9 14 18 18 17 16 15 17 19 19 22 23 23 22 22
4 4 0 2 6 8 3 3 1 2 3 4 1 6 6 6 6 10 9 9 9 9 8 7 7 8 5 3 5 8 11 17 19 21 20 19 19 20 22 23 23 24 25 27
5 4 4 4 0 2 3 6 6 4 5 3 1 7 3 5 4 6 8 9 8 7 8 7 10 11 9 7 6 7 11 15 16 20 24 26 25 26 27 27 26 25 27 29
9 2 3 3 2 2 5 5 4 3 3 6 5 5 2 4 6 5 7 8 8 9 8 7 7 10 13 11 9 9 9 13 14 16 21 22 25 29 31 31 30 31 31 30
5 4 6 8 4 5 5 6 7 5 3 3 7 8 7 5 7 5 6 6 8 9 11 9 7 9 16 16 14 13 12 12 14 16 18 19 20 22 26 27 29 30 30 30
4 5 5 4 4 4 4 5 10 12 15 9 6 15 22 11 9 9 8 6 8 10 11 12 12 9 17 20 18 16 15 15 16 17 17 16 15 18 21 24 26 26 27 28
3 2 3 3 3 6 5 8 10 16 15 13 13 27 13 9 4 5 8 8 10 12 14 14 12 11 17 23 26 23 21 20 18 18 18 17 14 15 18 21 22 24 24 24
7 6 3 4 3 2 9 14 20 10 8 15 13 29 3 4 8 9 8 10 12 13 15 16 18 17 23 28 33 31 27 24 22 19 21 20 18 15 15 17 20 21 23 23
6 6 2 3 1 6 2 3 8 18 18 18 15 24 15 8 5 6 10 11 12 14 14 16 15 21 27 30 33 33 29 28 27 25 24 24 23 21 17 15 16 18 19 19
9 5 4 4 4 8 7 5 8 9 9 21 23 26 20 6 6 13 10 12 16 13 14 19 30 32 30 34 36 36 33 31 30 30 30 28 28 26 24 20 16 16 17 17
8 7 5 3 5 9 5 1 3 5 8 10 18 17 7 5 0 4 4 4 7 7 12 17 25 26 28 31 37 35 33 35 34 35 34 32 30 29 28 26 24 19 16 15
5 5 11 5 4 8 8 5 5 6 6 5 9 8 7 5 6 3 8 6 4 5 11 20 25 27 32 35 38 34 32 34 43 39 35 33 32 31 29 28 27 25 24 20
11 9 5 4 6 13 6 5 9 6 2 6 6 7 7 6 7 6 8 7 7 7 5 16 19 23 27 33 35 32 33 44 43 40 38 36 35 33 32 30 28 27 27 26
6 6 7 12 8 2 7 3 7 1 4 4 6 5 5 5 6 7 6 6 6 6 6 12 17 20 27 36 39 33 37 38 43 41 40 39 37 35 33 33 32 30 29 29
3 2 3 4 8 8 8 6 6 4 5 2 3 5 6 6 7 8 8 8 6 5 6 9 14 15 19 31 36 36 34 44 43 40 41 40 41 38 35 34 34 34 34 32
4 9 7 4 6 4 5 9 9 3 5 5 5 6 8 4 9 6 7 7 7 7 8 10 17 17 20 27 33 36 35 40 39 38 36 39 39 40 40 39 40 40 39 40
4 6 7 10 5 4 5 7 2 5 8 8 5 3 3 6 8 3 7 6 7 8 10 12 18 22 24 27 30 33 37 39 37 31 31 33 34 37 37 37 36 38 39 38
Wind_Direction
51 85 216 217 204 176 154 221 254 271 170 260 244 277 276 253 226 231 223 218 219 221 198 187 276 333 338 348 350 348 349 351 342 337 331 326 311 303 297 280 269 262 245 240
53 234 211 203 183 219 228 220 270 280 299 254 321 288 286 260 241 234 218 210 205 175 185 196 305 344 343 348 352 347 350 345 344 338 331 318 312 305 297 306 273 243 245 227
175 215 133 141 156 172 227 194 228 244 317 240 313 292 334 292 296 288 200 177 157 184 190 188 308 339 342 358 354 346 349 347 348 347 345 338 347 331 312 341 307 239 215 224
234 237 162 166 200 153 248 185 150 55 28 273 8 279 305 300 305 274 168 152 160 161 161 156 271 333 349 358 352 351 355 350 356 357 353 342 340 333 329 321 321 211 210 187
236 167 161 171 204 174 228 124 93 82 72 337 355 66 271 346 321 248 190 179 177 183 173 162 205 324 360 3 353 359 1 2 5 5 4 354 0 353 14 42 70 108 135 146
250 226 169 191 71 57 144 77 44 51 59 348 243 115 285 242 217 304 189 192 184 184 169 152 188 330 7 13 360 8 6 13 17 17 16 13 18 6 29 70 82 74 107 144
116 207 182 142 96 24 91 89 331 345 10 227 147 90 247 259 239 222 209 203 185 177 171 173 212 337 6 20 5 14 13 17 21 26 26 28 31 28 34 77 88 87 89 95
165 251 177 179 176 175 181 171 167 209 214 284 89 235 249 200 268 237 254 181 154 168 182 185 208 258 353 28 15 20 23 26 27 36 36 36 45 39 41 82 100 100 105 111
157 216 101 82 123 137 185 199 165 106 42 39 231 281 293 228 228 118 148 160 179 181 186 195 192 215 294 41 35 25 31 38 38 42 45 49 54 63 54 69 101 106 111 114
204 104 327 143 127 65 157 164 86 352 138 257 279 275 244 264 217 215 196 206 200 191 183 194 192 204 194 109 64 50 49 51 49 54 58 57 62 73 78 75 74 91 97 114
154 120 296 150 203 172 141 208 132 135 163 180 277 265 210 221 198 208 213 211 201 192 193 189 190 197 186 194 98 73 67 66 60 67 69 70 69 75 88 86 84 99 109 112
171 117 163 215 127 139 169 195 173 146 215 243 210 274 176 215 219 211 226 207 198 190 190 193 188 187 183 209 143 106 93 85 81 81 81 82 85 87 89 92 93 95 96 107
175 216 83 18 14 356 202 194 175 115 91 207 151 258 4 286 290 258 232 204 189 186 176 192 194 190 189 200 188 145 120 105 101 98 94 91 91 92 94 96 99 101 103 103
108 151 167 190 167 131 186 189 181 160 150 184 230 303 270 270 254 258 248 210 188 192 185 187 199 199 195 195 203 169 152 133 119 111 102 96 96 101 106 109 109 109 111 112
151 187 160 202 139 151 181 171 186 204 214 197 232 225 252 242 235 233 218 186 187 198 195 195 195 202 192 196 203 193 169 156 141 126 117 111 109 111 112 114 114 115 115 117
172 176 109 315 196 216 234 205 198 222 236 253 269 277 260 245 249 261 225 199 207 208 206 200 195 195 192 196 197 203 184 172 165 148 138 133 127 125 124 125 125 125 123 124
151 135 121 230 49 45 285 208 209 204 205 212 222 243 273 232 233 246 258 211 215 215 205 200 198 198 197 196 197 201 194 181 176 167 156 151 147 142 140 137 136 134 134 137
138 119 126 149 126 233 243 154 210 213 236 213 247 259 245 259 266 277 239 235 218 221 203 206 201 199 202 199 199 198 199 191 185 178 173 166 161 158 156 154 150 146 145 148
166 136 159 176 207 313 277 195 170 169 259 212 225 248 262 298 333 292 263 235 245 225 203 203 201 200 193 194 197 195 195 198 192 189 184 179 173 169 166 166 167 165 163 159
159 163 190 144 180 210 247 129 157 135 278 199 206 235 248 112 227 264 346 335 285 248 208 195 199 196 189 191 190 186 190 195 199 198 194 188 185 180 177 176 173 176 177 175
168 173 198 171 221 281 242 151 163 126 245 162 169 194 155 181 213 270 308 301 284 274 239 206 182 187 196 191 186 185 190 195 204 202 201 197 194 192 189 183 183 180 180 181
175 168 178 147 201 256 146 69 179 204 72 146 144 165 171 218 281 292 300 303 312 314 286 202 184 190 193 191 185 188 195 203 202 205 202 203 202 200 194 192 189 189 186 184
204 194 178 190 207 210 207 294 218 130 158 178 146 178 180 225 249 271 269 302 303 302 288 230 200 189 188 195 193 192 203 201 203 203 206 205 205 205 204 198 194 192 195 196
246 152 182 108 242 221 235 259 229 214 226 179 164 172 195 249 265 268 288 292 287 279 259 224 200 194 194 196 199 208 199 203 200 199 204 208 205 206 207 207 206 202 201 203
185 150 174 270 273 329 238 231 240 212 211 235 234 219 238 242 273 249 271 278 273 267 253 223 211 207 212 207 205 207 207 204 195 198 199 203 206 207 208 212 211 212 216 215
224 170 181 220 200 198 226 231 179 199 240 247 210 245 233 200 248 266 280 266 275 273 260 232 225 222 222 218 213 211 211 206 197 195 197 199 199 207 209 211 217 223 227 225
Height
792 801 814 798 799 792 792 797 797 793 791 794 792 782 765 768 772 771 773 776 778 779 779 780 781 779 776 773 769 765 759 754 748 741 736 729 725 720 718 717 716 718 719 721
800 802 791 791 796 796 794 797 802 796 793 794 792 777 759 761 763 760 764 771 774 777 779 780 780 778 775 771 767 763 757 752 747 742 737 732 724 717 715 714 713 714 716 718
797 787 788 789 794 797 798 806 810 799 798 796 802 777 760 758 759 758 761 764 768 774 777 778 778 777 774 769 765 761 756 751 746 741 734 730 722 717 713 712 711 713 714 716
795 787 789 791 794 796 799 796 798 798 804 811 803 804 780 765 765 756 760 763 767 771 775 777 776 775 773 768 765 761 756 751 746 741 736 731 725 718 714 712 712 712 714 715
789 792 791 793 791 792 795 797 798 800 808 810 810 828 777 771 757 754 759 764 769 771 773 775 775 775 772 767 764 761 756 752 747 742 738 733 726 720 715 713 714 714 715 718
789 788 789 790 795 793 798 801 807 815 817 821 822 822 782 784 756 751 757 763 767 771 773 774 774 775 771 766 763 760 756 753 748 744 739 735 729 723 719 718 718 718 718 721
791 789 788 789 795 797 797 804 824 819 825 803 815 818 773 754 754 753 753 762 765 770 773 774 774 775 772 766 763 760 756 754 751 747 742 737 733 728 725 723 723 723 724 727
796 796 790 787 787 792 802 799 809 806 807 799 813 799 759 753 752 755 752 759 767 771 773 773 774 775 773 768 765 762 758 756 753 749 745 742 737 734 731 729 727 727 729 732
789 780 787 785 785 789 798 802 798 815 854 828 790 774 749 751 750 753 759 764 767 768 771 772 772 774 774 771 766 763 761 758 756 753 749 746 742 739 737 733 732 732 731 734
767 785 788 787 786 791 792 796 805 824 818 808 782 777 758 740 750 753 759 763 765 766 767 769 771 773 775 773 768 765 764 761 759 756 753 750 747 745 744 741 737 737 738 740
762 770 794 788 789 788 798 798 798 800 802 789 793 757 743 737 741 748 753 757 760 763 765 765 767 770 774 774 769 767 766 764 762 759 757 754 753 751 748 747 748 747 748 748
758 774 795 785 785 784 786 787 790 787 793 807 791 769 733 736 736 744 746 751 756 759 762 764 765 768 772 774 770 768 768 766 766 763 761 759 757 755 754 753 752 754 754 754
756 790 800 778 786 789 786 786 784 791 794 796 795 757 739 740 740 739 744 747 750 755 760 763 765 765 769 772 771 768 769 768 768 767 765 764 762 760 759 759 760 761 762 763
745 769 761 757 752 775 783 782 784 776 801 779 776 752 736 734 738 735 740 743 748 751 754 758 763 761 766 768 771 768 768 769 769 770 768 768 768 767 765 764 765 766 768 770
750 767 772 764 766 767 767 773 782 776 758 763 742 745 713 727 733 732 733 740 746 748 751 751 755 758 760 766 769 768 767 769 770 771 772 773 774 773 773 771 771 772 774 775
755 774 778 781 771 773 779 771 776 770 760 760 754 736 722 723 724 728 730 735 739 740 740 743 748 752 754 759 762 766 765 767 770 770 772 775 777 778 777 776 776 776 778 779
756 774 768 752 779 792 770 764 754 749 756 743 755 704 711 716 722 721 722 727 727 728 730 734 736 740 744 749 754 760 763 765 767 771 771 774 776 780 782 782 782 782 781 783
757 762 764 766 786 754 717 731 731 731 720 732 725 705 709 715 717 719 716 713 716 715 719 724 728 732 736 741 748 755 761 762 764 766 769 770 773 776 781 786 786 786 785 788
741 753 761 757 790 742 712 732 733 730 713 713 714 705 705 715 720 709 701 703 702 703 705 709 713 718 726 731 739 748 754 759 761 763 765 768 769 772 776 780 786 788 789 789
738 735 739 775 766 757 715 713 720 715 711 696 700 703 710 718 722 711 702 702 700 699 700 702 707 714 720 724 731 741 746 752 755 758 761 764 768 768 771 775 778 784 789 792
737 736 730 753 765 746 717 715 720 722 700 690 697 703 713 716 710 704 703 700 698 697 696 697 700 706 711 718 724 731 738 740 745 752 758 761 764 766 769 771 775 778 782 787
718 723 725 746 738 723 712 719 708 691 690 692 696 700 706 706 704 703 702 699 697 696 694 695 696 699 706 713 720 724 728 730 738 746 751 757 761 764 766 769 773 776 778 780
708 694 707 707 700 694 704 693 692 691 691 693 695 698 700 703 703 700 699 697 696 694 694 694 696 697 700 704 709 715 719 728 733 739 746 750 756 761 764 766 768 772 775 777
707 703 704 700 689 696 697 693 693 688 692 692 692 696 699 700 700 700 699 695 694 692 692 693 696 698 698 699 703 708 714 718 726 732 738 745 749 754 759 763 765 767 769 772
697 699 701 704 693 695 690 690 681 686 689 693 693 695 695 696 694 695 694 692 691 689 688 690 691 693 695 697 699 704 709 714 719 725 730 736 743 747 751 755 756 758 761 764
695 689 685 677 678 677 676 674 677 685 686 684 688 688 688 691 691 690 689 688 688 685 684 686 687 688 689 692 696 699 702 707 714 720 724 728 734 740 744 748 752 754 757 759